Flag for Russia Weather past 2 weeks in Orenburg, Russia

Now
21 °F

Snow flurries. Overcast.


Feels Like: 8 °F
Forecast: 17 / 32 °F
Wind: 15 mph from Southwest

Location: Orenburg / Tsentralny

Current Time: Dec 25, 2014 at 10:11:12 PM

Latest Report: Dec 25, 2014 at 9:30 PM


Visibility: 4 mi

Pressure: 29.65 "Hg

Humidity: 80%

Dew point: 16 °F

Location of OrenburgLocation

Historic Weather in Orenburg — Graph

°F

Orenburg temperature yesterday

Maximum temperature yesterday: 32 °F (at 4:30 PM)
Minimum temperature yesterday: 25 °F (at 1:30 AM)
Average temperature yesterday: 28 °F

Past Weeks' High & Low Weather Summary

 TemperatureHumidityPressure
High36 °F (Dec 21, 7:30 PM)100% (Dec 15, 11:30 AM)30.57 "Hg (Dec 15, 11:30 AM)
Low5 °F (Dec 11, 12:30 AM)50% (Dec 12, 1:00 PM)29.30 "Hg (Dec 24, 8:00 PM)
Average24 °F87%30.14 "Hg
* Reported Dec 10 9:00 PM — Dec 25 9:00 PM, Orenburg, Weather by CustomWeather, © 2014

Note: Actual official high and low records may vary slightly from our data, if they occured in-between our weather recording intervals... More about our weather records

Advertising

Orenburg weather history for previous 24 hours

 ConditionsComfort  
Time TempWeatherWind HumidityBarometerVisibility
9:00 PM
Dec 25
23 °FSnow flurries. Overcast.15 mph80%29.65 "Hg4 mi
8:30 PM23 °FSnow flurries. Overcast.15 mph80%29.65 "Hg4 mi
8:00 PM23 °FSnow flurries. Overcast.13 mph86%29.65 "Hg4 mi
7:30 PM25 °FSnow flurries. Overcast.8 mph80%29.65 "Hg4 mi
7:00 PM25 °FSnow flurries. Overcast.13 mph80%29.65 "Hg4 mi
6:30 PM25 °FOvercast.13 mph80%29.65 "HgN/A
6:00 PM25 °FOvercast.13 mph80%29.62 "HgN/A
5:30 PM25 °FOvercast.13 mph80%29.62 "HgN/A
5:00 PM25 °FOvercast.15 mph86%29.59 "HgN/A
4:30 PM27 °FOvercast.13 mph80%29.59 "HgN/A
4:00 PM27 °FOvercast.17 mph80%29.56 "HgN/A
3:30 PM27 °FOvercast.17 mph80%29.56 "HgN/A
3:00 PM27 °FSnow flurries. Overcast.17 mph86%29.53 "Hg3 mi
2:30 PM27 °FSnow flurries. Overcast.13 mph86%29.53 "Hg3 mi
2:00 PM25 °FSnow flurries. Overcast.20 mph86%29.50 "Hg3 mi
1:30 PM25 °FSnow flurries. Overcast.17 mph86%29.50 "Hg3 mi
1:00 PM25 °FSnow flurries. Overcast.17 mph86%29.50 "Hg3 mi
12:30 PM25 °FSnow flurries. Overcast.17 mph86%29.47 "Hg3 mi
12:00 PM25 °FSnow flurries. Overcast.15 mph86%29.47 "Hg3 mi
11:30 AM25 °FSnow flurries. Overcast.13 mph86%29.47 "Hg3 mi
11:00 AM25 °FSnow flurries. Overcast.13 mph86%29.45 "Hg2 mi
10:30 AM25 °FSnow flurries. Overcast.15 mph86%29.45 "Hg2 mi
10:00 AM25 °FSnow showers. Low clouds.15 mph86%29.42 "Hg1 mi
9:30 AM25 °FSnow showers. Overcast.13 mph86%29.42 "Hg1 mi
9:00 AM25 °FSnow flurries. Overcast.15 mph86%29.39 "Hg2 mi
8:30 AM27 °FOvercast.13 mph80%29.39 "HgN/A
8:00 AM27 °FOvercast.15 mph80%29.39 "HgN/A
7:30 AM27 °FOvercast.13 mph80%29.36 "HgN/A
7:00 AM28 °FSnow flurries. Overcast.8 mph80%29.36 "Hg4 mi
6:30 AM28 °FLight snow. Overcast.8 mph80%29.36 "Hg4 mi
6:00 AM28 °FLight snow. Overcast.10 mph86%29.36 "Hg4 mi
5:30 AM28 °FOvercast.13 mph86%29.36 "HgN/A
5:00 AM28 °FMostly cloudy.10 mph93%29.33 "HgN/A
4:30 AM28 °FOvercast.10 mph93%29.33 "HgN/A
4:00 AM30 °FLow clouds.10 mph86%29.33 "HgN/A
3:30 AM30 °FLight snow. Low clouds.10 mph93%29.33 "Hg2 mi
3:00 AM30 °FSnow. Low clouds.8 mph93%29.33 "Hg1 mi
2:30 AM30 °FOvercast.10 mph93%29.30 "HgN/A
2:00 AM32 °FOvercast.10 mph87%29.30 "HgN/A
1:30 AM32 °FOvercast.10 mph87%29.33 "HgN/A
1:00 AM32 °FOvercast.13 mph87%29.30 "HgN/A
12:30 AM32 °FOvercast.10 mph93%29.30 "HgN/A
12:00 AM32 °FOvercast.10 mph93%29.33 "HgN/A
11:30 PM
Dec 24
32 °FLow clouds.10 mph100%29.30 "HgN/A
11:00 PM32 °FLight rain. Low clouds.6 mph100%29.30 "Hg2 mi
10:30 PM32 °FLight rain. Low clouds.8 mph100%29.30 "Hg2 mi
10:00 PM32 °FLow clouds.10 mph100%29.30 "HgN/A
Weather by CustomWeather, © 2014

See weather overviewHow to use our weather pages